Terminal Aerodrome Forecast
Issued by NWS Pueblo, CO

Home | Current Version | Previous Version | Text Only | Print | Product List | Glossary On
Versions: 1 2 3 4 5 6 7 8 9 10 11 12 13 14 15 16 17 18 19 20 21 22 23 24 25 26 27 28 29
000
FTUS45 KPUB 201129
TAFCOS
TAF
KCOS 201129Z 2012/2112 34010KT P6SM SKC
     FM201500 35012G22KT P6SM SKC
     FM201900 06013KT P6SM SCT100 SCT200
     FM210200 05008KT P6SM VCSH BKN050
     FM211000 06007KT P6SM BKN012 OVC050=

USA.gov is the U.S. government's official web portal to all federal, state and local government web resources and services.